Location: *
(40.9522°S, 175.0455°E)
Time: 13:25:59
(UTC+00:00)

Daily predictions for brighter satellites

Satellite Brightness Start Highest point End
(mag) Time Altitude Azimuth Time Altitude Azimuth Time Altitude Azimuth
USA 59 Rocket 4.1 13:47:42 11° ESE 13:47:42 11° ESE 13:47:52 10° ESE
USA 59 Rocket 2.2 15:33:20 56° ESE 15:33:20 56° ESE 15:40:03 10° NE
SL-16 R/B 4.5 15:55:31 10° NE 15:59:35 20° E 16:03:40 10° SE
SL-12 R/B(2) 4.2 16:01:33 66° ENE 16:01:33 66° ENE 16:07:44 10° NE
Cosmos 2237 Rocket 3.9 16:18:13 24° SSE 16:18:13 24° SSE 16:20:25 10° SSE
USA 281 4.0 16:14:06 10° SE 16:20:30 48° ENE 16:26:49 10° N
Cosmos 2369 Rocket 4.4 16:31:31 10° S 16:35:57 22° SE 16:40:19 10° ENE
IRS-1D 3.6 16:40:14 10° NNE 16:45:31 80° ESE 16:45:31 80° ESE
ATLAS 5 CENTAUR R/B 4.3 16:50:09 11° S 16:53:38 18° SSE 16:57:07 10° ESE
Meteor 1-16 Rocket 4.2 16:55:38 66° SSW 16:55:38 66° SSW 17:00:47 10° S
Cosmos 1869 Rocket 4.4 16:51:54 10° NNE 16:56:03 48° E 17:00:16 10° SSE
Lacrosse 5 rocket 2.6 16:59:35 32° SE 16:59:35 32° SE 17:02:47 10° ENE
Cosmos 614 Rocket 3.8 17:05:57 51° SSW 17:07:17 84° WNW 17:12:30 10° NNE
Cosmos 2278 Rocket 4.1 17:11:48 15° NNW 17:11:48 15° NNW 17:12:54 10° NNW
USA 215 4.3 17:03:55 10° E 17:09:53 37° SSE 17:14:03 19° SSW
Nadezhda 3 Rocket 3.9 17:06:10 10° S 17:12:37 83° W 17:18:53 10° N
Gbstr 26 Del rocket 4.2 17:15:39 37° SSW 17:16:10 38° SSW 17:21:53 10° SE
Cosmos 1400 Rocket 3.9 17:15:59 10° NNE 17:19:32 41° E 17:23:05 10° SSE
USA 59 Rocket 2.0 17:18:58 35° W 17:21:05 40° WNW 17:27:48 10° N
Landsat 7 4.4 17:17:38 10° NNE 17:22:12 55° ESE 17:26:49 10° S
Meteor 1-12 Rocket 4.2 17:17:16 10° NNW 17:22:52 58° WSW 17:28:36 10° S
Cosmos 1125 Rocket 3.8 17:23:17 43° WSW 17:23:17 43° WSW 17:28:04 10° S
Cosmos 2150 Rocket 4.4 17:22:21 10° N 17:27:41 67° ENE 17:33:00 10° SSE
SL-4 R/B 3.8 17:35:31 14° S 17:35:31 14° S 17:37:13 10° SSE
Cosmos 1656 Rocket 3.6 17:33:11 23° SW 17:36:40 61° WNW 17:42:02 10° N
Meteor 1-28 Rocket 3.7 17:34:17 10° SSE 17:37:34 50° E 17:40:47 10° N
SL-16 R/B 2.5 17:36:27 10° S 17:42:45 74° WSW 17:48:59 10° NNW
SL-16 R/B 2.2 17:37:36 10° NW 17:43:10 56° WSW 17:48:48 10° SSE
NOSS 3-1 (A) 4.5 17:37:44 10° SSW 17:43:55 39° SE 17:48:52 10° ENE
Cosmos 1733 Rocket 3.2 17:44:40 10° N 17:48:57 73° E 17:53:19 10° SSE
SL-8 Rocket 4.0 17:44:47 10° N 17:50:58 88° E 17:57:14 10° S
Cosmos 1346 Rocket 4.1 17:50:26 10° S 17:53:57 38° ESE 17:57:24 10° NNE
SPOT 1/Viking Rocket 4.3 17:49:15 10° NNE 17:54:16 55° ESE 17:59:23 10° S
Cosmos 2237 Rocket 3.9 18:00:03 14° SW 18:00:03 14° SW 18:02:29 10° SSW
Cosmos 2242 Rocket 3.7 17:59:26 10° S 18:04:05 84° E 18:08:39 10° N
USA 281 3.8 17:58:54 10° S 18:04:45 34° SW 18:10:34 10° WNW
Cosmos 967 Rocket 4.5 17:58:33 10° SW 18:04:49 67° WNW 18:11:07 10° NNE
Thor Agena Rocket 4.0 18:03:09 10° NNE 18:08:20 67° ESE 18:13:38 10° S
USA 276 4.2 18:08:14 12° SSW 18:09:12 14° S 18:10:50 10° SE
AQUARIUS 4.3 18:05:51 10° NNE 18:10:17 75° ESE 18:14:46 10° S
Aureole 3 2.8 18:07:51 10° S 18:10:54 74° E 18:13:53 10° NNE
Meteor 2-15 4.4 18:06:56 10° NNW 18:13:02 76° W 18:19:13 10° S
SMAP 3.3 18:13:44 10° N 18:18:14 47° W 18:22:48 10° SSW
Resurs 01 Rocket 4.0 18:14:51 10° ENE 18:18:21 23° ESE 18:21:53 10° SSE
CZ-2D R/B 3.5 18:16:05 10° NNE 18:18:59 50° ESE 18:21:55 10° S
COSMOS 2455 3.5 18:13:15 10° SSW 18:19:13 56° ESE 18:25:08 10° NE
MOS 1 Rocket 4.5 18:16:54 10° NW 18:20:01 19° W 18:23:15 10° SW
Cosmos 2369 Rocket 2.3 18:14:43 10° SSW 18:20:23 60° WNW 18:25:57 10° N
Cosmos 2366 rocket 4.1 18:14:12 10° NNW 18:20:29 61° W 18:26:50 10° S
NOSS 3-1 (C) 3.4 18:15:33 10° SW 18:21:33 49° WNW 18:26:21 10° N
SJ-12 3.9 18:18:09 10° NNE 18:21:56 74° ESE 18:25:45 10° S
Cosmos 1959 Rocket 4.5 18:17:57 10° NNW 18:24:06 66° W 18:30:27 10° S
USA 32 4.2 18:19:33 10° N 18:24:48 84° E 18:30:07 10° S
UNK 3.8 18:20:44 10° S 18:25:19 56° WSW 18:29:51 10° NNW
Cosmos 2285 Rocket 4.1 18:21:47 10° NW 18:28:05 58° WSW 18:34:30 10° SSE
Meteor 2-15 Rocket 4.4 18:24:34 10° NNW 18:30:42 78° W 18:36:54 10° S
Cosmos 1025 Rocket 3.3 18:26:56 10° S 18:31:17 74° E 18:35:32 10° NNE
Cosmos 1140 Rocket 3.8 18:27:15 10° SSW 18:32:33 72° ESE 18:37:46 10° NNE
Cosmos 1943 3.3 18:28:21 10° NW 18:33:53 57° WSW 18:39:31 10° SSE
Lacrosse 5 rocket 2.2 18:32:51 11° WSW 18:35:56 28° NW 18:39:08 10° N
Cosmos 1484 Rocket 3.8 18:33:17 10° NNW 18:36:01 21° W 18:38:45 10° SW
Cosmos 1269 Rocket 4.4 18:31:33 10° SSW 18:36:53 70° ESE 18:42:09 10° NNE
ATLAS 5 CENTAUR R/B 2.0 18:31:18 10° SSW 18:36:58 78° SE 18:41:26 10° NE
Cosmos 2221 Rocket 4.1 18:39:08 10° S 18:43:38 65° E 18:48:02 10° NNE
Resurs 1-3 3.6 18:39:33 10° NNE 18:43:53 85° W 18:48:16 10° SSW
Cosmos 1727 Rocket 4.2 18:39:03 10° S 18:45:26 88° E 18:51:47 10° N
Cosmos 2297 4.3 18:43:58 10° SW 18:49:12 39° WNW 18:54:26 10° N
Cosmos 1821 Rocket 4.1 18:43:18 10° NNW 18:49:17 54° W 18:55:20 10° S
Cosmos 921 Rocket 3.5 18:47:08 10° S 18:51:30 66° ESE 18:55:54 10° NNE
USA 215 3.4 18:45:53 10° NE 18:52:29 80° NW 18:59:08 10° SW
